Location: Lombard
(41.8800°N, 88.0080°W)
Time: 04:59:53
(UTC-05:00)

Vanguard 2 Rocket - Pass Details

Date: 02 March 2024
Orbit: 555 x 3307 km, 32.9° (Epoch: 12 April)

Event Time Altitude Azimuth Distance (km) Brightness Sun altitude
Rises 14:24:50 0° 256° (WSW) 3,817 10.9 31.7°
Reaches altitude 10° 14:27:06 10° 251° (WSW) 3,117 10.7 31.4°
Maximum altitude 14:34:49 52° 177° (S) 2,051 9.6 30.4°
Drops below altitude 10° 14:48:21 10° 107° (ESE) 5,295 10.6 28.6°
Sets 14:53:28 0° 104° (ESE) 6,677 11.0 27.9°
